| time (UTC) | temp C | wind direction | speed KPH | gust KPH | rain 1hr cm | rain 24hr cm | rain mn cm | humidity % | barometer mb |
| 20260505111508 | 20 | 25 | 0.0 | 0.0 | 0.00 | 0.00 | 0.00 | 91 | 1003.8 |
| 20260505101503 | 20 | 25 | 0.0 | 1.6 | 0.00 | 0.00 | 0.00 | 90 | 1003.5 |
| 20260505100009 | 20 | 25 | 0.0 | 1.6 | 0.00 | 0.00 | 0.00 | 90 | 1003.5 |
| 20260505094507 | 20 | 25 | 0.0 | 3.2 | 0.00 | 0.00 | 0.00 | 90 | 1003.4 |
| 20260505093031 | 20 | 25 | 0.0 | 1.6 | 0.00 | 0.00 | 0.00 | 89 | 1003.5 |
| 20260505091535 | 20 | 25 | 0.0 | 6.4 | 0.00 | 0.00 | 0.00 | 89 | 1003.6 |
| 20260505090025 | 20 | 25 | 0.0 | 3.2 | 0.00 | 0.00 | 0.00 | 89 | 1003.7 |
| 20260505084526 | 20 | 25 | 0.0 | 3.2 | 0.00 | 0.00 | 0.00 | 89 | 1003.7 |
| 20260505083034 | 20 | 25 | 0.0 | 3.2 | 0.00 | 0.00 | 0.00 | 89 | 1003.7 |
| 20260505081523 | 20 | 25 | 0.0 | 4.8 | 0.00 | 0.00 | 0.00 | 89 | 1004.0 |
| 20260505080022 | 20 | 25 | 0.0 | 4.8 | 0.00 | 0.00 | 0.00 | 89 | 1004.0 |
| 20260505074518 | 20 | 25 | 0.0 | 6.4 | 0.00 | 0.00 | 0.00 | 88 | 1004.2 |
| 20260505073016 | 20 | 25 | 0.0 | 4.8 | 0.00 | 0.00 | 0.00 | 88 | 1004.4 |
| 20260505071522 | 20 | 25 | 0.0 | 4.8 | 0.00 | 0.00 | 0.00 | 87 | 1004.7 |
| 20260505070012 | 20 | 25 | 1.6 | 6.4 | 0.00 | 0.00 | 0.00 | 87 | 1004.7 |
| 20260505064511 | 20 | 25 | 0.0 | 3.2 | 0.00 | 0.00 | 0.00 | 86 | 1004.9 |
| 20260505063014 | 21 | 25 | 0.0 | 3.2 | 0.00 | 0.00 | 0.00 | 86 | 1004.9 |
| 20260505061508 | 21 | 25 | 0.0 | 1.6 | 0.00 | 0.00 | 0.00 | 85 | 1005.2 |
| 20260505060006 | 21 | 25 | 0.0 | 0.0 | 0.00 | 0.00 | 0.00 | 85 | 1005.2 |
| 20260505054506 | 21 | 25 | 0.0 | 0.0 | 0.00 | 0.00 | 0.00 | 85 | 1005.2 |
| 20260505053006 | 21 | 25 | 0.0 | 0.0 | 0.00 | 0.00 | 0.00 | 84 | 1005.2 |
| 20260505051504 | 21 | 25 | 0.0 | 0.0 | 0.00 | 0.00 | 0.00 | 84 | 1005.4 |
| 20260505041610 | 21 | 25 | 0.0 | 0.0 | 0.00 | 0.00 | 0.00 | 80 | 1005.5 |
| 20260505034555 | 21 | 25 | 0.0 | 0.0 | 0.00 | 0.00 | 0.00 | 79 | 1005.7 |
| 20260505033056 | 21 | 25 | 0.0 | 0.0 | 0.00 | 0.00 | 0.00 | 80 | 1005.8 |
| 20260505031555 | 21 | 25 | 0.0 | 0.0 | 0.00 | 0.00 | 0.00 | 79 | 1005.7 |
| 20260505024559 | 21 | 25 | 0.0 | 0.0 | 0.00 | 0.00 | 0.00 | 79 | 1005.5 |
| 20260505023050 | 21 | 25 | 0.0 | 0.0 | 0.00 | 0.00 | 0.00 | 78 | 1005.6 |
| 20260505021554 | 21 | 25 | 0.0 | 0.0 | 0.00 | 0.00 | 0.00 | 77 | 1005.5 |
| 20260505020056 | 21 | 25 | 0.0 | 0.0 | 0.00 | 0.00 | 0.00 | 77 | 1005.5 |
| 20260505014545 | 21 | 25 | 0.0 | 0.0 | 0.00 | 0.00 | 0.00 | 76 | 1005.4 |
| 20260505013043 | 22 | 25 | 0.0 | 0.0 | 0.00 | 0.00 | 0.00 | 75 | 1005.1 |
| 20260505011540 | 22 | 25 | 0.0 | 0.0 | 0.00 | 0.00 | 0.00 | 74 | 1005.3 |
| 20260505010059 | 22 | 25 | 0.0 | 0.0 | 0.00 | 0.00 | 0.00 | 73 | 1005.2 |
| 20260505004531 | 23 | 25 | 0.0 | 0.0 | 0.00 | 0.00 | 0.00 | 71 | 1005.3 |
| 20260505003030 | 23 | 25 | 0.0 | 1.6 | 0.00 | 0.00 | 0.00 | 70 | 1005.1 |
| 20260505001525 | 24 | 25 | 0.0 | 4.8 | 0.00 | 0.00 | 0.00 | 67 | 1005.3 |
| 20260505000023 | 24 | 25 | 0.0 | 3.2 | 0.00 | 0.00 | 0.00 | 67 | 1005.4 |
| 20260504234518 | 25 | 25 | 0.0 | 3.2 | 0.00 | 0.00 | 0.00 | 67 | 1005.8 |
| 20260504233015 | 25 | 25 | 0.0 | 1.6 | 0.00 | 0.00 | 0.00 | 65 | 1006.1 |
| 20260504231513 | 25 | 25 | 0.0 | 3.2 | 0.00 | 0.00 | 0.00 | 64 | 1006.1 |
| 20260504230012 | 25 | 25 | 0.0 | 4.8 | 0.00 | 0.00 | 0.00 | 63 | 1006.0 |
| 20260504224510 | 25 | 25 | 1.6 | 6.4 | 0.00 | 0.00 | 0.00 | 60 | 1006.2 |
| 20260504223007 | 25 | 25 | 0.0 | 3.2 | 0.00 | 0.00 | 0.00 | 61 | 1006.4 |
| 20260504221506 | 25 | 25 | 0.0 | 4.8 | 0.00 | 0.00 | 0.00 | 60 | 1006.7 |
| 20260504220004 | 26 | 25 | 1.6 | 4.8 | 0.00 | 0.00 | 0.00 | 59 | 1006.6 |
| 20260504214501 | 26 | 25 | 0.0 | 4.8 | 0.00 | 0.00 | 0.00 | 58 | 1006.8 |
| 20260504213104 | 26 | 25 | 0.0 | 8.0 | 0.00 | 0.00 | 0.00 | 57 | 1006.9 |
| 20260504211601 | 26 | 25 | 0.0 | 6.4 | 0.00 | 0.00 | 0.00 | 56 | 1007.1 |
| 20260504204554 | 27 | 25 | 1.6 | 4.8 | 0.00 | 0.00 | 0.00 | 56 | 1008.0 |
| 20260504203048 | 27 | 25 | 0.0 | 4.8 | 0.00 | 0.00 | 0.00 | 55 | 1008.5 |
| 20260504201548 | 27 | 25 | 3.2 | 6.4 | 0.00 | 0.00 | 0.00 | 56 | 1008.7 |
| 20260504200053 | 27 | 24 | 1.6 | 6.4 | 0.00 | 0.00 | 0.00 | 53 | 1009.0 |
| 20260504194540 | 27 | 25 | 0.0 | 4.8 | 0.00 | 0.00 | 0.00 | 53 | 1009.4 |
| 20260504193042 | 27 | 25 | 0.0 | 4.8 | 0.00 | 0.00 | 0.00 | 56 | 1009.6 |
| 20260504191535 | 26 | 25 | 0.0 | 4.8 | 0.00 | 0.00 | 0.00 | 57 | 1009.6 |
| 20260504190032 | 26 | 25 | 1.6 | 6.4 | 0.00 | 0.00 | 0.00 | 54 | 1010.0 |
| 20260504184536 | 26 | 25 | 1.6 | 8.0 | 0.00 | 0.00 | 0.00 | 53 | 1010.1 |
| 20260504183034 | 26 | 25 | 0.0 | 4.8 | 0.00 | 0.00 | 0.00 | 55 | 1010.1 |
| 20260504181526 | 26 | 25 | 1.6 | 4.8 | 0.00 | 0.00 | 0.00 | 55 | 1010.5 |
| 20260504180026 | 26 | 25 | 1.6 | 6.4 | 0.00 | 0.00 | 0.00 | 57 | 1010.6 |
| 20260504174522 | 26 | 25 | 1.6 | 6.4 | 0.00 | 0.00 | 0.00 | 58 | 1010.9 |
| 20260504173017 | 25 | 25 | 0.0 | 4.8 | 0.00 | 0.00 | 0.00 | 55 | 1011.3 |
| 20260504171514 | 25 | 25 | 1.6 | 8.0 | 0.00 | 0.00 | 0.00 | 59 | 1011.5 |